#timestamp,LO_Frequency,Hit,StdDev 
1574647215.4,286047000.2,N
1574647235.2,286047001.0,N
1574647255.1,286047001.1,N
1574647256.0,286047001.1,N
1574647275.8,286046999.8,N
1574647295.6,286047000.2,N
1574647315.5,286047000.2,N
1574647335.3,286046999.4,N
1574647355.2,286046998.5,N
1574647375.9,286046998.6,N
1574647395.7,286046998.5,N
1574647415.6,286046998.4,N
1574647435.4,286046998.2,N
1574647455.2,286046998.7,N
1574647475.1,286046998.8,N
1574647476.0,286046998.8,N
1574647495.8,286046999.0,N
1574647515.7,286046996.7,Y
1574647535.5,286046996.7,P
1574647555.3,286046999.4,N
1574647575.2,286046998.3,N
1574647595.0,286046998.8,N
1574647595.9,286046998.8,N
1574647615.8,286046998.4,N
1574647635.6,286046998.6,N
1574647655.4,286046999.0,N
1574647675.3,286046998.2,N
1574647695.1,286047001.2,N
1574647715.8,286047000.6,N
1574647735.7,286046999.7,N
1574647755.5,286047002.8,N
1574647775.4,286047002.8,N
1574647795.2,286046999.7,N
1574647815.0,286046999.7,N
1574647815.9,286046999.7,N
1574647835.8,286047002.5,N
1574647855.6,286047002.3,N
1574647875.4,286047002.1,N
1574647895.3,286047001.4,N
1574647915.1,286047001.6,N
1574647935.9,286047002.3,N
1574647955.7,286047001.9,N
1574647975.5,286046999.8,N
1574647995.4,286047000.0,N
1574648015.2,286047000.2,N
1574648035.1,286047000.4,N
1574648036.0,286047000.4,N
1574648055.8,286047000.0,N
1574648075.6,286047000.8,N
1574648095.5,286047002.1,N
1574648115.3,286046999.9,N
1574648135.1,286046999.7,N
1574648155.9,286047002.5,N
1574648175.7,286047000.0,N
1574648195.6,286047002.7,N
1574648215.4,286047001.9,N
1574648235.2,286047001.4,N
1574648255.1,286047004.2,Y
1574648256.0,286047004.2,P
1574648275.8,286047002.3,N
1574648295.7,286047000.3,N
1574648315.5,286047000.8,N
1574648335.3,286047000.0,N
1574648355.2,286047002.0,N
1574648375.0,286046999.9,N
1574648375.9,286046999.9,N
1574648395.8,286046999.7,N
1574648415.6,286047002.3,N
1574648435.4,286047001.7,N
1574648455.3,286047004.0,Y
1574648475.1,286047002.4,P
1574648495.8,286047004.0,P
1574648515.7,286047003.1,N
1574648535.5,286047004.4,Y
1574648555.4,286047000.0,P
1574648575.2,286047000.8,N
1574648595.0,286047000.8,N
1574648595.9,286047000.8,N
1574648615.8,286046998.9,N
1574648635.6,286047000.9,N
1574648655.5,286047000.5,N
1574648675.3,286047002.7,N
1574648695.1,286047000.1,N
1574648715.9,286046999.9,N
1574648735.7,286046998.7,N
1574648755.5,286046998.3,N
1574648775.4,286046999.2,N
1574648795.2,286046998.2,N
1574648815.0,286047000.7,N
1574648816.0,286047000.7,N
1574648835.8,286046998.7,N
1574648855.6,286047001.0,N
1574648875.5,286046998.4,N
1574648895.3,286047000.8,N
1574648915.1,286046998.7,N
1574648935.9,286046998.5,N
1574648955.7,286047000.1,N
1574648975.6,286047002.7,N
1574648995.4,286046998.2,N
1574649015.2,286046998.7,N
1574649035.1,286046998.5,N
1574649036.0,286046998.5,N
1574649055.8,286046998.5,N
1574649075.6,286046999.7,N
1574649095.5,286046998.1,N
1574649115.3,286046998.3,N
1574649135.2,286046999.4,N
1574649155.9,286046999.0,N
1574649175.7,286046999.6,N
1574649195.6,286046997.7,N
1574649215.4,286046997.9,N
1574649235.2,286046997.9,N
1574649255.1,286046997.2,N
1574649256.0,286046997.2,N
1574649275.8,286046999.1,N
1574649295.7,286046998.8,N
1574649315.5,286046996.6,N
1574649335.3,286046997.8,N
1574649355.2,286046995.0,Y
1574649375.0,286046998.9,P
1574649375.9,286046998.9,P
1574649395.8,286046998.6,P
1574649415.6,286046998.9,Y
1574649435.4,286046998.7,P
1574649455.3,286046998.5,P
1574649475.1,286047000.7,P
1574649495.8,286047000.1,N
1574649515.7,286047001.2,N
1574649535.5,286046998.2,N
1574649555.4,286047002.4,N
1574649575.2,286047000.1,N
1574649595.0,286047000.0,N
1574649595.9,286047000.0,N
1574649615.8,286047002.8,N
1574649635.6,286047001.7,N
1574649655.4,286047002.2,N
1574649675.3,286047000.4,N
1574649695.1,286047002.7,N
1574649715.9,286046999.8,N
1574649735.7,286047000.3,N
1574649755.5,286047000.4,N
1574649775.4,286047002.8,N
1574649795.2,286046999.7,N
1574649815.0,286047002.4,N
1574649815.9,286047002.4,N
1574649835.8,286047000.1,N
1574649855.6,286047002.4,N
1574649875.5,286047002.3,N
1574649895.3,286047001.7,N
1574649915.1,286047001.8,N
1574649935.9,286047002.4,N
1574649955.7,286047002.8,N
1574649975.5,286047002.2,N
1574649995.4,286047002.8,N
1574650015.2,286047002.6,N
1574650035.1,286046999.7,N
1574650036.0,286046999.7,N
1574650055.8,286047002.4,N
1574650075.6,286046999.8,N
1574650095.5,286047001.0,N
1574650115.3,286047002.3,N
1574650135.1,286046999.8,N
1574650155.9,286046999.8,N
1574650175.7,286046999.7,N
1574650195.6,286047002.0,N
1574650215.4,286047000.2,N
1574650235.2,286047002.1,N
1574650255.1,286047004.4,Y
1574650256.0,286047004.4,P
1574650275.8,286047000.2,N
1574650295.7,286046998.2,N
1574650315.5,286046999.8,N
1574650335.3,286047000.4,N
1574650355.2,286047001.2,N
1574650375.0,286046998.4,N
1574650375.9,286046998.4,N
1574650395.7,286046997.0,N
1574650415.6,286046999.1,N
1574650435.4,286046996.5,N
1574650455.3,286046998.2,N
1574650475.1,286046999.7,N
1574650476.0,286046999.7,N
1574650495.8,286047002.8,N
1574650515.7,286047002.6,N
1574650535.5,286047002.0,N
1574650555.4,286047001.4,N
1574650575.2,286047003.3,N
1574650595.0,286047004.3,N
1574650595.9,286047004.3,N
1574650615.8,286047003.2,N
1574650635.6,286047005.4,N
1574650655.4,286047006.0,N
1574650675.3,286047003.7,N
1574650695.1,286047005.9,N
1574650715.9,286047003.0,N
1574650735.7,286047001.4,N
1574650755.5,286047001.3,N
1574650775.4,286047001.6,N
1574650795.2,286047001.9,N
